Location: Molveno
(46.1500°N, 10.9667°E)
Time: 08:15:21
(UTC+00:00)

Cosmos 2084 - Pass Details

Date: 05 July 2020
Orbit: 571 x 612 km, 62.8° (Epoch: 05 August)

Event Time Altitude Azimuth Distance (km) Brightness Sun altitude
Rises 21:40:00 0° 316° (NW) 2,883 8.3 -17.5°
Reaches altitude 10° 21:42:20 10° 311° (NW) 1,973 7.1 -17.6°
Maximum altitude 21:46:39 50° 237° (WSW) 780 3.9 -17.9°
Enters shadow 21:48:05 35° 185° (S) 983 4.1 -18.0°
